Weather Service Report


702 
ASUS45 KPSR 280010
RWRAZ 

ARIZONA HOURLY REGIONAL WEATHER ROUNDUP
NATIONAL WEATHER SERVICE PHOENIX AZ
500 PM MST TUE JUN 27 2017

NOTE: FAIR INDICATES FEW OR NO CLOUDS BELOW 12,000 FEET WITH NO
SIGNIFICANT WEATHER AND/OR OBSTRUCTIONS TO VISIBILITY.

AZZ001>003-036-280100-
NORTHWEST ARIZONA
  
CITY           SKY/WX    TMP DP  RH WIND       PRES   REMARKS
BULLHEAD CITY  SUNNY    113   3   2 S22G28    29.59F HX 103           
KINGMAN        SUNNY     99  22   6 SW14G23   29.88F                  
6HR MIN TEMP:  92; 6HR MAX TEMP: 101;                                

$$

AZZ004>008-015-016-018-280100-
NORTH CENTRAL ARIZONA
  
CITY           SKY/WX    TMP DP  RH WIND       PRES   REMARKS
GRAND CANYON   SUNNY     87   7   5 SW17G29   30.09F                  
6HR MIN TEMP:  83; 6HR MAX TEMP:  89;                                

PRESCOTT       SUNNY     92  -4   2 SW25G31   30.02F                  
6HR MIN TEMP:  87; 6HR MAX TEMP:  93;                                

FLAGSTAFF      SUNNY     82  -3   4 SW22G30   30.16F                  
6HR MIN TEMP:  79; 6HR MAX TEMP:  85;                                

PAYSON         SUNNY     90  18   7 SW7G17    30.06F                  
PAGE           SUNNY    100   7   3 W10G20    29.82F                  
6HR MIN TEMP:  94; 6HR MAX TEMP: 101;                                

$$

AZZ009>014-017-280100-
NORTHEAST ARIZONA
  
CITY           SKY/WX    TMP DP  RH WIND       PRES   REMARKS
WINSLOW        SUNNY     95   9   4 SW17G30   29.97F                  
6HR MIN TEMP:  95; 6HR MAX TEMP: 100;                                

SAINT JOHNS    SUNNY     91  19   7 SW26G35   30.02F                  
6HR MIN TEMP:  91; 6HR MAX TEMP:  95;                                

WINDOW ROCK    SUNNY     89   8   5 W18G26    30.08F                  
6HR MIN TEMP:  87; 6HR MAX TEMP:  93;                                

SHOW LOW       SUNNY     84  16   8 SW22G29   30.12F                  
$$

AZZ540-542>544-546-548-280100-
GREATER PHOENIX AREA
  
CITY           SKY/WX    TMP DP  RH WIND       PRES   REMARKS
PHOENIX        MOSUNNY  109  26   5 W10G22    29.69F HX 101           
6HR MIN TEMP: 102; 6HR MAX TEMP: 110;                                

BUCKEYE        SUNNY    109  21   4 SW13G21   29.69F HX 100           
GLENDALE       MOSUNNY  109  25   5 S13G20    29.71F HX 101           
LUKE AFB       SUNNY    109  19   4 S13       29.68F HX 100           
6HR MIN TEMP: 102; 6HR MAX TEMP: 110;                                

DEER VALLEY    SUNNY    106  16   4 SW16G23   29.71F                  
6HR MIN TEMP: 100; 6HR MAX TEMP: 108;                                

SCOTTSDALE     SUNNY    107  17   4 SW10      29.74F                  
6HR MIN TEMP: 100; 6HR MAX TEMP: 108;                                

MESA-FALCON    MOSUNNY  N/A N/A N/A MISG      29.73F                  
MESA-GATEWAY   MOSUNNY  106  30   7 SW10G17   29.74F                  
CHANDLER       SUNNY    108  28   6 W12       29.72F HX 100           
$$

AZZ539-553-280100-
SOUTHWEST MARICOPA COUNTY AND PINAL COUNTY
  
CITY           SKY/WX    TMP DP  RH WIND       PRES   REMARKS
CASA GRANDE    SUNNY    106  38   9 W10G22    29.74F HX 100           
6HR MIN TEMP: 102; 6HR MAX TEMP: 108;                                

GILA BEND      SUNNY    110  28   6 W15G25    29.68F HX 101           
6HR MIN TEMP: 104; 6HR MAX TEMP: 111;                                

$$

AZZ503-504-507>509-280100-
SOUTHEAST ARIZONA
  
CITY           SKY/WX    TMP DP  RH WIND       PRES   REMARKS
TUCSON         SUNNY    106  28   6 W16       29.84F                  
6HR MIN TEMP: 100; 6HR MAX TEMP: 107;                                

DAVIS-MONTHAN  SUNNY    104  28   7 W16G22    29.82F                  
6HR MIN TEMP:  99; 6HR MAX TEMP: 106;                                

RYAN FIELD     SUNNY    106  28   6 W17G29    29.83F                  
NOGALES        SUNNY     99  30   9 NW10G23   29.95F                  
6HR MIN TEMP:  94; 6HR MAX TEMP: 103;                                

SIERRA VISTA   SUNNY     96  28   9 W15G28    30.02F                  
6HR MIN TEMP:  91; 6HR MAX TEMP:  99;                                

DOUGLAS        SUNNY     97  30   9 NW16G24   29.93F                  
6HR MIN TEMP:  91; 6HR MAX TEMP: 102;                                

SAFFORD        SUNNY    104  27   6 NW23G33   29.81F                  
6HR MIN TEMP:  94; 6HR MAX TEMP: 106;                                

$$

AZZ532-280100-
SOUTHWEST ARIZONA
  
CITY           SKY/WX    TMP DP  RH WIND       PRES   REMARKS
YUMA           SUNNY    112  31   6 W12       29.65F HX 104           
6HR MIN TEMP: 100; 6HR MAX TEMP: 113;                                

$$

CAZ041-043-047-048-061-525>527-560>570-280100-
SOUTHERN CALIFORNIA
  
CITY           SKY/WX    TMP DP  RH WIND       PRES   REMARKS
DOWNTOWN L.A.  SUNNY     81  55  40 MISG      29.83F                  
6HR MIN TEMP:  81; 6HR MAX TEMP:  89;                                

L.A. AIRPORT   SUNNY     72  56  57 W12       29.85F                  
6HR MIN TEMP:  72; 6HR MAX TEMP:  77;                                

SAN DIEGO      MOSUNNY   77  60  55 W10       29.88F                  
6HR MIN TEMP:  76; 6HR MAX TEMP:  80;                                

BURBANK        SUNNY     88  43  20 S14       29.84F                  
6HR MIN TEMP:  88; 6HR MAX TEMP:  93;                                

ONTARIO        SUNNY     93  34  12 SW12      29.84S                  
6HR MIN TEMP:  91; 6HR MAX TEMP:  99;                                

RIVERSIDE      SUNNY     98  33  10 W13       29.82F                  
6HR MIN TEMP:  91; 6HR MAX TEMP: 101;                                

PALM SPRINGS   SUNNY    112  24   5 NW18G29   29.66F HX 103           
6HR MIN TEMP: 106; 6HR MAX TEMP: 115;                                

EL CENTRO NAS  SUNNY    113   8   2 W21       29.66F HX 103           
6HR MIN TEMP: 104; 6HR MAX TEMP: 117;                                

IMPERIAL       LGT RAIN 110  40   9 W12       29.63F HX 104           
6HR MIN TEMP: 105; 6HR MAX TEMP: 114; 6HR PCP: TRACE;                

BLYTHE         PTSUNNY  114   3   2 SW16G24   29.63F HX 103           
6HR MIN TEMP: 103; 6HR MAX TEMP: 115;                                

NEEDLES        MOSUNNY  116 -52   0 W18G28    29.64F HX 103           
6HR MIN TEMP: 104; 6HR MAX TEMP: 116;                                

$$

NVZ020-UTZ003-280100-
SOUTHERN NEVADA-UTAH
  
CITY           SKY/WX    TMP DP  RH WIND       PRES   REMARKS
LAS VEGAS      SUNNY    106   4   2 SW13G20   29.71F                  
6HR MIN TEMP:  96; 6HR MAX TEMP: 107;                                

SALT LAKE CITY MOSUNNY   89  31  12 N10       29.88F                  
6HR MIN TEMP:  85; 6HR MAX TEMP:  92;                                

$$

NMZ009-TXZ055-280100-
NEW MEXICO-WEST TEXAS
  
CITY           SKY/WX    TMP DP  RH WIND       PRES   REMARKS
ALBUQUERQUE    MOSUNNY   91  39  16 S20       29.95F                  
6HR MIN TEMP:  81; 6HR MAX TEMP:  92; 6HR PCP: TRACE;                

EL PASO        MOSUNNY   95  51  22 SE7       29.93F                  
6HR MIN TEMP:  85; 6HR MAX TEMP:  96;                                

$$


........................KEY........................
SKY/WX - SKY CONDITION/WEATHER
TMP    - TEMPERATURE IN FAHRENHEIT
DP     - DEW POINT IN FAHRENHEIT
RH     - RELATIVE HUMIDITY IN PERCENT
WIND   - DIRECTION AND SPEED IN MILES PER HOUR (MPH)
VRB    - VARIABLE WIND DIRECTION
PRES   - MEAN SEA LEVEL PRESSURE IN INCHES OF MERCURY
         F - FALLING PRESSURE   R - RISING PRESSURE
         S - STEADY PRESSURE
VSB    - VISIBILITY IN MILES
HX     - HEAT INDEX IN FAHRENHEIT
WCI    - WIND CHILL INDEX IN FAHRENHEIT
TC     - TEMPERATURE IN CELSIUS WHICH IS ALSO KNOWN AS
         TEMPERATURE IN CENTIGRADE
AFB    - AIR FORCE BASE
         LUKE AFB IS LUKE AIR FORCE BASE
         DAVIS-MONTHAN IS DAVIS-MONTHAN AIR FORCE BASE
NAS    - NAVAL AIR STATION
         EL CENTRO NAS IS EL CENTRO NAVAL AIR STATION
N/A    - NOT AVAILABLE

  


709 
ASUS45 KPSR 280010
RWRAZ 

ARIZONA REGIONAL HOURLY WEATHER ROUNDUP
NATIONAL WEATHER SERVICE TUCSON AZ
500 PM MST TUE JUN 27 2017

NOTE: FAIR INDICATES FEW OR NO CLOUDS BELOW 12,000 FEET WITH NO
SIGNIFICANT WEATHER AND/OR OBSTRUCTIONS TO VISIBILITY.

AZZ001>003-036-280100-
NORTHWEST ARIZONA
  
CITY           SKY/WX    TMP DP  RH WIND       PRES   REMARKS
BULLHEAD CITY  SUNNY    113   3   2 S22G28    29.59F HX 103           
KINGMAN        SUNNY     99  22   6 SW14G23   29.88F                  
6HR MIN TEMP:  92; 6HR MAX TEMP: 101;                                

$$

AZZ004>008-015-016-018-280100-
NORTH CENTRAL ARIZONA
  
CITY           SKY/WX    TMP DP  RH WIND       PRES   REMARKS
GRAND CANYON   SUNNY     87   7   5 SW17G29   30.09F                  
6HR MIN TEMP:  83; 6HR MAX TEMP:  89;                                

PRESCOTT       SUNNY     92  -4   2 SW25G31   30.02F                  
6HR MIN TEMP:  87; 6HR MAX TEMP:  93;                                

FLAGSTAFF      SUNNY     82  -3   4 SW22G30   30.16F                  
6HR MIN TEMP:  79; 6HR MAX TEMP:  85;                                

PAYSON         CLEAR     90  18   7 SW7G17    30.06F                  
PAGE           SUNNY    100   7   3 W10G20    29.82F                  
6HR MIN TEMP:  94; 6HR MAX TEMP: 101;                                

$$

AZZ009>014-017-280100-
NORTHEAST ARIZONA
  
CITY           SKY/WX    TMP DP  RH WIND       PRES   REMARKS
WINSLOW        SUNNY     95   9   4 SW17G30   29.97F                  
6HR MIN TEMP:  95; 6HR MAX TEMP: 100;                                

SAINT JOHNS    SUNNY     91  19   7 SW26G35   30.02F                  
6HR MIN TEMP:  91; 6HR MAX TEMP:  95;                                

WINDOW ROCK    SUNNY     89   8   5 W18G26    30.08F                  
6HR MIN TEMP:  87; 6HR MAX TEMP:  93;                                

SHOW LOW       SUNNY     84  16   8 SW22G29   30.12F                  
$$

AZZ023-280100-
GREATER PHOENIX AREA
  
CITY           SKY/WX    TMP DP  RH WIND       PRES   REMARKS
PHOENIX        MOSUNNY  109  26   5 W10G22    29.69F HX 101           
6HR MIN TEMP: 102; 6HR MAX TEMP: 110;                                

BUCKEYE        CLEAR    109  21   4 SW13G21   29.69F HX 100           
GLENDALE       MOSUNNY  109  25   5 S13G20    29.71F HX 101           
LUKE AFB       SUNNY    109  19   4 S13       29.68F HX 100           
6HR MIN TEMP: 102; 6HR MAX TEMP: 110;                                

DEER VALLEY    SUNNY    106  16   4 SW16G23   29.71F                  
6HR MIN TEMP: 100; 6HR MAX TEMP: 108;                                

SCOTTSDALE     SUNNY    107  17   4 SW10      29.74F                  
6HR MIN TEMP: 100; 6HR MAX TEMP: 108;                                

MESA-FALCON    MOSUNNY  N/A N/A N/A MISG      29.73F                  
MESA-GATEWAY   MOSUNNY  106  30   7 SW10G17   29.74F                  
CHANDLER       SUNNY    108  28   6 W12       29.72F HX 100           
$$

AZZ027-028-280100-
SOUTHWEST MARICOPA COUNTY AND PINAL COUNTY
  
CITY           SKY/WX    TMP DP  RH WIND       PRES   REMARKS
CASA GRANDE    SUNNY    106  38   9 W10G22    29.74F HX 100           
6HR MIN TEMP: 102; 6HR MAX TEMP: 108;                                

$$

AZZ503-504-507>509-280100-
SOUTHEAST ARIZONA
  
CITY           SKY/WX    TMP DP  RH WIND       PRES   REMARKS
TUCSON         SUNNY    106  28   6 W16       29.84F                  
6HR MIN TEMP: 100; 6HR MAX TEMP: 107;                                

DAVIS-MONTHAN  SUNNY    104  28   7 W16G22    29.82F                  
6HR MIN TEMP:  99; 6HR MAX TEMP: 106;                                

RYAN FIELD     CLEAR    106  28   6 W17G29    29.83F                  
NOGALES        SUNNY     99  30   9 NW10G23   29.95F                  
6HR MIN TEMP:  94; 6HR MAX TEMP: 103;                                

SIERRA VISTA   SUNNY     96  28   9 W15G28    30.02F                  
6HR MIN TEMP:  91; 6HR MAX TEMP:  99;                                

DOUGLAS        SUNNY     97  30   9 NW16G24   29.93F                  
6HR MIN TEMP:  91; 6HR MAX TEMP: 102;                                

SAFFORD        SUNNY    104  27   6 NW23G33   29.81F                  
6HR MIN TEMP:  94; 6HR MAX TEMP: 106;                                

$$

AZZ020-021-025-026-031-280100-
SOUTHWEST ARIZONA
  
CITY           SKY/WX    TMP DP  RH WIND       PRES   REMARKS
YUMA           SUNNY    112  31   6 W12       29.65F HX 104           
6HR MIN TEMP: 100; 6HR MAX TEMP: 113;                                

$$

CAZ031-033-041-043-047-048-061-280100-
SOUTHERN CALIFORNIA
  
CITY           SKY/WX    TMP DP  RH WIND       PRES   REMARKS
DOWNTOWN L.A.  SUNNY     81  55  40 MISG      29.83F                  
6HR MIN TEMP:  81; 6HR MAX TEMP:  89;                                

L.A. AIRPORT   SUNNY     72  56  57 W12       29.85F                  
6HR MIN TEMP:  72; 6HR MAX TEMP:  77;                                

SAN DIEGO      MOSUNNY   77  60  55 W10       29.88F                  
6HR MIN TEMP:  76; 6HR MAX TEMP:  80;                                

BURBANK        SUNNY     88  43  20 S14       29.84F                  
6HR MIN TEMP:  88; 6HR MAX TEMP:  93;                                

ONTARIO        SUNNY     93  34  12 SW12      29.84S                  
6HR MIN TEMP:  91; 6HR MAX TEMP:  99;                                

RIVERSIDE      SUNNY     98  33  10 W13       29.82F                  
6HR MIN TEMP:  91; 6HR MAX TEMP: 101;                                

PALM SPRINGS   SUNNY    112  24   5 NW18G29   29.66F HX 103           
6HR MIN TEMP: 106; 6HR MAX TEMP: 115;                                

EL CENTRO NAS  SUNNY    113   8   2 W21       29.66F HX 103           
6HR MIN TEMP: 104; 6HR MAX TEMP: 117;                                

IMPERIAL       LGT RAIN 110  40   9 W12       29.63F HX 104           
6HR MIN TEMP: 105; 6HR MAX TEMP: 114; 6HR PCP: TRACE;                

BLYTHE         PTSUNNY  114   3   2 SW16G24   29.63F HX 103           
6HR MIN TEMP: 103; 6HR MAX TEMP: 115;                                

NEEDLES        MOSUNNY  116 -52   0 W18G28    29.64F HX 103           
6HR MIN TEMP: 104; 6HR MAX TEMP: 116;                                

$$

NVZ020-UTZ003-280100-
SOUTHERN NEVADA-UTAH
  
CITY           SKY/WX    TMP DP  RH WIND       PRES   REMARKS
LAS VEGAS      SUNNY    106   4   2 SW13G20   29.71F                  
6HR MIN TEMP:  96; 6HR MAX TEMP: 107;                                

SALT LAKE CITY MOSUNNY   89  31  12 N10       29.88F                  
6HR MIN TEMP:  85; 6HR MAX TEMP:  92;                                

$$

NMZ009-TXZ055-280100-
NEW MEXICO-WEST TEXAS
  
CITY           SKY/WX    TMP DP  RH WIND       PRES   REMARKS
ALBUQUERQUE    MOSUNNY   91  39  16 S20       29.95F                  
6HR MIN TEMP:  81; 6HR MAX TEMP:  92; 6HR PCP: TRACE;                

EL PASO        MOSUNNY   95  51  22 SE7       29.93F                  
6HR MIN TEMP:  85; 6HR MAX TEMP:  96;                                

$$


........................KEY........................
SKY/WX - SKY CONDITION/WEATHER
TMP    - TEMPERATURE IN FAHRENHEIT
DP     - DEWPOINT IN FAHRENHEIT
RH     - RELATIVE HUMIDITY IN PERCENT
WIND   - DIRECTION AND SPEED IN MILES PER HOUR (MPH)
VRB    - VARIABLE WIND DIRECTION
PRES   - MEAN SEA LEVEL PRESSURE IN INCHES OF MERCURY
         F - FALLING PRESSURE   R - RISING PRESSURE
         S - STEADY PRESSURE
VSB    - VISIBILITY IN MILES
HX     - HEAT INDEX IN FAHRENHEIT
WCI    - WIND CHILL INDEX IN FAHRENHEIT
TC     - TEMPERATURE IN CELSIUS WHICH IS ALSO KNOWN AS
         TEMPERATURE IN CENTIGRADE
AFB    - AIR FORCE BASE
         LUKE AFB IS LUKE AIR FORCE BASE
         DAVIS-MONTHAN IS DAVIS-MONTHAN AIR FORCE BASE
NAS    - NAVAL AIR STATION
         EL CENTRO NAS IS EL CENTRO NAVAL AIR STATION
N/A    - NOT AVAILABLE

  

Return to Home page


Western Regional Climate Center, wrcc@dri.edu